User: anonymous   Login
Location: Bergen
(60.3910°N, 5.3250°E)
Time: 21:22:53
(UTC+02:00)
Language:

Cosmos 1943 - Orbit

View from above orbital plane
View from above orbital plane
View from above satellite
View from above satellite

Ground track
Ground track

The orbit data is extracted from the following two-line orbital elements,

1 19119U 88039A   17263.61115683 -.00000105  00000-0 -29419-4 0  9996
2 19119  71.0017 261.3889 0014076 272.7586 228.3485 14.15102394515598
Epoch (UTC): 20 September 2017 14:40:03
Eccentricity: 0.0014076
inclination: 71.0017°
perigee height: 832 km
apogee height: 852 km
right ascension of ascending node: 261.3889°
argument of perigee: 272.7586°
revolutions per day: 14.15102394
mean anomaly at epoch: 228.3485°
orbit number at epoch: 51559

The dashed part of the orbit path shows where the satellite is in the earth's shadow,  

DLR